Location: Stendal
(52.5994°N, 11.8400°E)
Time: 21:59:56
(UTC+01:00)

Cosmos 858 - Visible Passes

Search period start: 24 January 2022 00:00
Search period end: 03 February 2022 00:00
Orbit: 768 x 787 km, 74.0° (Epoch: 24 January)

Date Brightness Start Highest point End Pass type
(mag) Time Alt. Az. Time Alt. Az. Time Alt. Az.
24 Jan 7.1 06:40:10 10° SSE 06:44:46 32° ESE 06:49:24 10° NE visible
24 Jan 8.5 18:47:14 10° WNW 18:49:01 12° W 18:50:48 10° WSW visible
25 Jan 7.7 06:06:54 10° SE 06:10:49 22° E 06:14:46 10° NE visible
25 Jan 8.1 18:11:42 10° NW 18:15:12 18° W 18:18:40 10° SW visible
26 Jan 8.2 05:34:10 10° SE 05:36:57 15° E 05:39:44 10° ENE visible
26 Jan 5.2 07:13:06 10° SSW 07:18:21 82° ESE 07:23:40 10° NNE visible
26 Jan 7.6 17:36:55 10° NW 17:41:16 26° W 17:45:38 10° SSW visible
27 Jan 5.8 06:39:07 10° S 06:44:14 56° ESE 06:49:24 10° NNE visible
28 Jan 6.6 06:05:22 10° S 06:10:10 38° ESE 06:15:01 10° NE visible
29 Jan 7.3 05:31:56 10° SSE 05:36:11 26° E 05:40:30 10° NE visible
29 Jan 5.1 07:12:53 10° SW 07:18:05 60° WNW 07:23:21 10° NNE visible
29 Jan 8.1 17:37:37 10° WNW 17:40:31 15° W 17:43:27 10° SW visible
30 Jan 7.8 04:58:55 10° SE 05:02:17 17° E 05:05:41 10° NE visible
30 Jan 5.0 06:38:34 10° SSW 06:43:50 86° WNW 06:49:11 10° NNE visible
31 Jan 8.1 04:26:51 10° ESE 04:28:28 11° E 04:30:05 10° ENE visible
31 Jan 5.4 06:04:28 10° SSW 06:09:41 66° ESE 06:14:57 10° NNE visible
01 Feb 6.1 05:30:37 10° S 05:35:35 45° ESE 05:40:37 10° NE visible
01 Feb 5.6 07:13:07 10° WSW 07:17:59 37° NW 07:22:55 10° NNE visible
02 Feb 6.8 04:57:02 10° SSE 05:01:35 30° E 05:06:10 10° NE visible
02 Feb 5.2 06:38:29 10° SW 06:43:37 51° WNW 06:48:49 10° NNE visible
